Orbital Elements at Epoch 2459000.5 (2020-May-31.0) TDB
Reference: JPL 23 (heliocentric ecliptic J2000)
Element | Value | Uncertainty (1-sigma) | Units |
e | .1919180486564043 | 2.9539e-08 | |
a | 2.546522938077325 | 1.0607e-08 | au |
q | 2.057799224942751 | 7.57e-08 | au |
i | 1.51701308756842 | 4.7857e-06 | deg |
node | 118.6029334188061 | 0.00013291 | deg |
peri | 272.8332186111567 | 0.0001338 | deg |
M | 276.3545541501521 | 1.6924e-05 | deg |
tp | 2459345.373333764563 (2021-May-10.87333376) | 7.0838e-05 | TDB |
period | 1484.293602524548 4.06 | 9.2741e-06 2.539e-08 | d yr |
n | .2425396157388923 | 1.5154e-09 | deg/d |
Q | 3.035246651211898 | 1.2643e-08 | au |
|
| | Orbit Determination Parameters
Additional Information
|